Weather History for Lake Hood, AK

Change the Weather History Date:

Sunday, August 4, 2013

  Actual Average Record
Temperature  
Mean Temperature 62 °F -  
Max Temperature 69 °F 65 °F 75 °F (2004)
Min Temperature 59 °F 52 °F 48 °F (1996)
Degree Days  
Heating Degree Days 2    
Growing Degree Days 12 (Base 50)    
Moisture  
Dew Point 50 °F    
Average Humidity 65    
Maximum Humidity 75    
Minimum Humidity 52    
Precipitation  
Precipitation 0.02 in - - ()
Sea Level Pressure  
Sea Level Pressure 29.95 in    
Wind  
Wind Speed 6 mph (SSE)    
Max Wind Speed 10 mph    
Max Gust Speed 18 mph    
Visibility 10 miles    
Events Rain    
Averages and records for this station are not official NWS values.
T = Trace of Precipitation, MM = Missing Value Source: NWS Daily Summary

Daily Weather History Graph

Daily Weather History Graph

Search for Another Location

Airport:

Trip Planner

Search our weather history database for the weather conditions in past years. The results will help you decide how hot, cold, wet, or windy it might be!

Date:

Astronomy

Aug. 04, 2013 Rise Set
Actual Time 5:41 AM AKDT 10:28 PM AKDT
Civil Twilight 4:38 AM AKDT 11:30 PM AKDT
Nautical Twilight 2:38 AM AKDT 1:33 AM AKDT
Astronomical Twilight Sun does not rise Sun does not rise
Moon 3:46 AM AKDT (8/4) 8:54 PM AKDT (8/4)
Length of Visible Light 18h 51m
Length of Day
16h 47m
Waning Crescent, 4% of the Moon is Illuminated
Aug 4
Waning Crescent
Aug 6
New
Aug 14
First Quarter
Aug 20
Full
Aug 28
Last Quarter

Hourly Weather History & Observations

Time (AKDT) Temp. Dew Point Humidity Pressure Visibility Wind Dir Wind Speed Gust Speed Precip Events Conditions
12:53 AM 62.1 °F 48.0 °F 60% 29.90 in 10.0 mi South 6.9 mph 18.4 mph N/A   Overcast
1:53 AM 61.0 °F 48.0 °F 62% 29.91 in 10.0 mi SSE 8.1 mph - N/A   Overcast
2:53 AM 62.1 °F 46.9 °F 58% 29.92 in 10.0 mi SE 6.9 mph - N/A   Overcast
3:53 AM 59.0 °F 48.9 °F 69% 29.92 in 10.0 mi Calm Calm - N/A   Overcast
4:53 AM 60.1 °F 48.9 °F 67% 29.92 in 10.0 mi SSE 6.9 mph - N/A   Overcast
5:53 AM 60.1 °F 48.9 °F 67% 29.93 in 10.0 mi SSE 8.1 mph - N/A   Overcast
6:53 AM 59.0 °F 51.1 °F 75% 29.94 in 10.0 mi Calm Calm - N/A   Overcast
7:53 AM 60.1 °F 50.0 °F 69% 29.94 in 10.0 mi Calm Calm - N/A   Overcast
8:53 AM 60.1 °F 52.0 °F 75% 29.95 in 10.0 mi North 5.8 mph - N/A   Overcast
9:53 AM 60.1 °F 51.1 °F 72% 29.95 in 10.0 mi NE 3.5 mph - 0.00 in   Overcast
10:53 AM 62.1 °F 52.0 °F 70% 29.96 in 10.0 mi Calm Calm - N/A   Overcast
11:53 AM 64.0 °F 50.0 °F 60% 29.96 in 10.0 mi Variable 3.5 mph - N/A   Overcast
12:53 PM 64.0 °F 51.1 °F 63% 29.96 in 10.0 mi NNE 6.9 mph - N/A   Overcast
1:53 PM 64.0 °F 52.0 °F 65% 29.96 in 10.0 mi NNE 5.8 mph - N/A   Overcast
2:53 PM 66.0 °F 51.1 °F 59% 29.96 in 10.0 mi North 3.5 mph - N/A   Overcast
3:53 PM 66.9 °F 48.9 °F 52% 29.96 in 10.0 mi South 8.1 mph - N/A   Mostly Cloudy
4:53 PM 66.0 °F 48.0 °F 52% 29.96 in 10.0 mi South 10.4 mph - N/A   Overcast
5:53 PM 64.9 °F 51.1 °F 61% 29.96 in 10.0 mi South 5.8 mph - 0.00 in Rain Light Rain
6:53 PM 62.1 °F 52.0 °F 70% 29.96 in 10.0 mi South 8.1 mph - 0.00 in Rain Light Rain
7:53 PM 62.1 °F 51.1 °F 67% 29.96 in 10.0 mi South 9.2 mph - 0.02 in   Overcast
8:53 PM 62.1 °F 50.0 °F 65% 29.96 in 10.0 mi Variable 6.9 mph - N/A   Overcast
9:53 PM 61.0 °F 48.9 °F 64% 29.96 in 10.0 mi South 9.2 mph - N/A   Mostly Cloudy
10:53 PM 61.0 °F 48.9 °F 64% 29.97 in 10.0 mi South 6.9 mph - N/A   Mostly Cloudy
11:53 PM 61.0 °F 48.9 °F 64% 29.98 in 10.0 mi Variable 6.9 mph 17.3 mph N/A   Overcast